Time,TemperatureF,DewpointF,PressureIn,WindDirection,WindDirectionDegrees,WindSpeedMPH,WindSpeedGustMPH,Humidity,HourlyPrecipIn,Conditions,Clouds,dailyrainin,SoftwareType,DateUTC
2013-08-14 00:01:00,53.0,44.6,30.01,ESE,103,1.0,1.0,73,0.00,,,0.00,WeatherCatV1.21B27,2013-08-14 06:01:00,
2013-08-14 00:06:00,53.0,44.6,30.01,SW,225,1.0,1.0,73,0.00,,,0.00,WeatherCatV1.21B27,2013-08-14 06:06:00,
2013-08-14 00:11:00,52.4,44.7,30.01,SE,146,0.0,1.0,75,0.00,,,0.00,WeatherCatV1.21B27,2013-08-14 06:11:00,
2013-08-14 00:16:00,52.0,44.3,30.02,SE,146,0.0,0.0,75,0.00,,,0.00,WeatherCatV1.21B27,2013-08-14 06:16:00,
2013-08-14 00:21:00,51.8,44.5,30.02,South,174,0.0,0.0,76,0.00,,,0.00,WeatherCatV1.21B27,2013-08-14 06:21:00,
2013-08-14 00:26:00,51.6,44.6,30.02,SSE,166,0.0,0.0,77,0.00,,,0.00,WeatherCatV1.21B27,2013-08-14 06:26:00,
2013-08-14 00:31:00,51.5,44.9,30.02,WSW,257,0.0,0.0,78,0.00,,,0.00,WeatherCatV1.21B27,2013-08-14 06:31:00,
2013-08-14 00:36:00,51.1,44.8,30.02,WSW,257,0.0,0.0,79,0.00,,,0.00,WeatherCatV1.21B27,2013-08-14 06:36:00,
2013-08-14 00:41:00,50.7,43.8,30.02,WSW,257,0.0,0.0,77,0.00,,,0.00,WeatherCatV1.21B27,2013-08-14 06:41:00,
2013-08-14 00:46:00,50.6,44.3,30.02,WSW,257,0.0,0.0,79,0.00,,,0.00,WeatherCatV1.21B27,2013-08-14 06:46:00,
2013-08-14 00:51:00,50.4,44.1,30.03,WSW,258,0.0,0.0,79,0.00,,,0.00,WeatherCatV1.21B27,2013-08-14 06:51:00,
2013-08-14 00:56:00,50.3,44.7,30.02,SW,222,1.0,1.0,81,0.00,,,0.00,WeatherCatV1.21B27,2013-08-14 06:56:00,
2013-08-14 01:01:00,50.7,44.1,30.03,SW,226,0.0,1.0,78,0.00,,,0.00,WeatherCatV1.21B27,2013-08-14 07:01:00,
2013-08-14 01:06:00,50.7,43.1,30.03,SW,224,0.0,1.0,75,0.00,,,0.00,WeatherCatV1.21B27,2013-08-14 07:06:00,
2013-08-14 01:11:00,50.6,43.7,30.03,ESE,119,0.0,0.0,77,0.00,,,0.00,WeatherCatV1.21B27,2013-08-14 07:11:00,
2013-08-14 01:16:00,50.2,44.3,30.03,ESE,118,0.0,0.0,80,0.00,,,0.00,WeatherCatV1.21B27,2013-08-14 07:16:00,
2013-08-14 01:21:00,49.8,43.9,30.03,South,176,0.0,0.0,80,0.00,,,0.00,WeatherCatV1.21B27,2013-08-14 07:21:00,
2013-08-14 01:26:00,49.4,42.8,30.04,South,177,1.0,2.0,78,0.00,,,0.00,WeatherCatV1.21B27,2013-08-14 07:26:00,
2013-08-14 01:31:00,49.3,41.7,30.04,ESE,119,0.0,1.0,75,0.00,,,0.00,WeatherCatV1.21B27,2013-08-14 07:31:00,
2013-08-14 01:36:00,49.4,41.5,30.04,ESE,119,0.0,0.0,74,0.00,,,0.00,WeatherCatV1.21B27,2013-08-14 07:36:00,
2013-08-14 01:41:00,49.4,41.8,30.05,NNE,26,0.0,0.0,75,0.00,,,0.00,WeatherCatV1.21B27,2013-08-14 07:41:00,
2013-08-14 01:46:00,49.1,42.5,30.04,NNW,335,0.0,0.0,78,0.00,,,0.00,WeatherCatV1.21B27,2013-08-14 07:46:00,
2013-08-14 01:51:00,48.7,42.8,30.04,NNW,335,0.0,0.0,80,0.00,,,0.00,WeatherCatV1.21B27,2013-08-14 07:51:00,
2013-08-14 01:56:00,48.4,42.5,30.04,West,269,0.0,1.0,80,0.00,,,0.00,WeatherCatV1.21B27,2013-08-14 07:56:00,
2013-08-14 02:01:00,48.4,42.2,30.05,SW,226,0.0,2.0,79,0.00,,,0.00,WeatherCatV1.21B27,2013-08-14 08:01:00,
2013-08-14 02:06:00,48.5,42.3,30.04,ESE,120,0.0,1.0,79,0.00,,,0.00,WeatherCatV1.21B27,2013-08-14 08:06:00,
2013-08-14 02:11:00,48.7,42.5,30.04,East,101,0.0,0.0,79,0.00,,,0.00,WeatherCatV1.21B27,2013-08-14 08:11:00,
2013-08-14 02:16:00,48.7,42.5,30.05,East,101,0.0,0.0,79,0.00,,,0.00,WeatherCatV1.21B27,2013-08-14 08:16:00,
2013-08-14 02:21:00,48.6,42.7,30.05,East,101,0.0,0.0,80,0.00,,,0.00,WeatherCatV1.21B27,2013-08-14 08:21:00,
2013-08-14 02:26:00,48.3,42.4,30.05,East,100,0.0,0.0,80,0.00,,,0.00,WeatherCatV1.21B27,2013-08-14 08:26:00,
2013-08-14 02:31:00,47.9,42.3,30.05,East,101,0.0,0.0,81,0.00,,,0.00,WeatherCatV1.21B27,2013-08-14 08:31:00,
2013-08-14 02:36:00,47.8,42.3,30.05,SSE,155,0.0,0.0,81,0.00,,,0.00,WeatherCatV1.21B27,2013-08-14 08:36:00,
2013-08-14 02:41:00,47.6,42.4,30.05,SSE,155,0.0,0.0,82,0.00,,,0.00,WeatherCatV1.21B27,2013-08-14 08:41:00,
2013-08-14 02:46:00,47.1,42.5,30.05,SSE,155,0.0,0.0,84,0.00,,,0.00,WeatherCatV1.21B27,2013-08-14 08:46:00,
2013-08-14 02:51:00,47.1,42.5,30.05,SSE,155,0.0,0.0,84,0.00,,,0.00,WeatherCatV1.21B27,2013-08-14 08:51:00,
2013-08-14 02:56:00,47.1,42.5,30.05,WSW,252,0.0,0.0,84,0.00,,,0.00,WeatherCatV1.21B27,2013-08-14 08:56:00,
2013-08-14 03:01:00,46.9,42.0,30.05,WNW,290,0.0,0.0,83,0.00,,,0.00,WeatherCatV1.21B27,2013-08-14 09:01:00,
2013-08-14 03:06:00,46.7,42.1,30.05,WNW,290,0.0,0.0,84,0.00,,,0.00,WeatherCatV1.21B27,2013-08-14 09:06:00,
2013-08-14 03:11:00,46.4,41.5,30.06,WNW,290,0.0,0.0,83,0.00,,,0.00,WeatherCatV1.21B27,2013-08-14 09:11:00,
2013-08-14 03:16:00,46.1,41.5,30.06,WNW,290,0.0,0.0,84,0.00,,,0.00,WeatherCatV1.21B27,2013-08-14 09:16:00,
2013-08-14 03:21:00,46.1,41.5,30.06,ENE,63,0.0,0.0,84,0.00,,,0.00,WeatherCatV1.21B27,2013-08-14 09:21:00,
2013-08-14 03:26:00,46.1,42.2,30.06,ENE,62,0.0,0.0,86,0.00,,,0.00,WeatherCatV1.21B27,2013-08-14 09:26:00,
2013-08-14 03:31:00,46.1,42.5,30.06,ENE,62,0.0,0.0,87,0.00,,,0.00,WeatherCatV1.21B27,2013-08-14 09:31:00,
2013-08-14 03:36:00,45.8,41.8,30.06,ENE,62,0.0,0.0,86,0.00,,,0.00,WeatherCatV1.21B27,2013-08-14 09:36:00,
2013-08-14 03:41:00,45.6,42.0,30.06,ENE,63,0.0,0.0,87,0.00,,,0.00,WeatherCatV1.21B27,2013-08-14 09:41:00,
2013-08-14 03:46:00,45.4,42.3,30.06,ENE,62,0.0,0.0,89,0.00,,,0.00,WeatherCatV1.21B27,2013-08-14 09:46:00,
2013-08-14 03:51:00,45.1,42.0,30.06,ENE,62,0.0,0.0,89,0.00,,,0.00,WeatherCatV1.21B27,2013-08-14 09:51:00,
2013-08-14 03:56:00,44.8,41.8,30.06,ENE,63,0.0,0.0,89,0.00,,,0.00,WeatherCatV1.21B27,2013-08-14 09:56:00,
2013-08-14 04:01:00,44.7,41.7,30.06,ENE,62,0.0,0.0,89,0.00,,,0.00,WeatherCatV1.21B27,2013-08-14 10:01:00,
2013-08-14 04:06:00,44.7,41.7,30.06,ENE,62,0.0,0.0,89,0.00,,,0.00,WeatherCatV1.21B27,2013-08-14 10:06:00,
2013-08-14 04:11:00,44.6,41.8,30.06,ENE,63,0.0,0.0,90,0.00,,,0.00,WeatherCatV1.21B27,2013-08-14 10:11:00,
2013-08-14 04:16:00,44.5,42.0,30.06,ENE,62,0.0,1.0,91,0.00,,,0.00,WeatherCatV1.21B27,2013-08-14 10:16:00,
2013-08-14 04:21:00,44.3,41.8,30.06,ENE,63,0.0,0.0,91,0.00,,,0.00,WeatherCatV1.21B27,2013-08-14 10:21:00,
2013-08-14 04:26:00,44.2,41.5,30.06,ENE,62,0.0,0.0,90,0.00,,,0.00,WeatherCatV1.21B27,2013-08-14 10:26:00,
2013-08-14 04:31:00,44.1,41.9,30.06,ENE,62,0.0,0.0,92,0.00,,,0.00,WeatherCatV1.21B27,2013-08-14 10:31:00,
2013-08-14 04:36:00,44.0,41.3,30.06,ENE,62,1.0,1.0,90,0.00,,,0.00,WeatherCatV1.21B27,2013-08-14 10:36:00,
2013-08-14 04:41:00,44.2,41.5,30.06,NNE,23,0.0,0.0,90,0.00,,,0.00,WeatherCatV1.21B27,2013-08-14 10:41:00,
2013-08-14 04:46:00,44.3,41.3,30.06,NNE,23,0.0,0.0,89,0.00,,,0.00,WeatherCatV1.21B27,2013-08-14 10:46:00,
2013-08-14 04:51:00,44.1,41.1,30.06,NNE,25,0.0,0.0,89,0.00,,,0.00,WeatherCatV1.21B27,2013-08-14 10:51:00,
2013-08-14 04:56:00,43.9,41.4,30.06,NNE,23,0.0,0.0,91,0.00,,,0.00,WeatherCatV1.21B27,2013-08-14 10:56:00,
2013-08-14 05:01:00,43.6,41.2,30.06,NNE,23,0.0,0.0,91,0.00,,,0.00,WeatherCatV1.21B27,2013-08-14 11:01:00,
2013-08-14 05:06:00,43.5,41.0,30.06,NNE,23,0.0,0.0,91,0.00,,,0.00,WeatherCatV1.21B27,2013-08-14 11:06:00,
2013-08-14 05:11:00,43.3,40.8,30.06,NNE,25,0.0,0.0,91,0.00,,,0.00,WeatherCatV1.21B27,2013-08-14 11:11:00,
2013-08-14 05:16:00,43.1,40.9,30.07,NNE,25,0.0,0.0,92,0.00,,,0.00,WeatherCatV1.21B27,2013-08-14 11:16:00,
2013-08-14 05:21:00,43.0,40.8,30.07,NNE,23,0.0,0.0,92,0.00,,,0.00,WeatherCatV1.21B27,2013-08-14 11:21:00,
2013-08-14 05:26:00,42.9,40.7,30.07,NNE,23,1.0,1.0,92,0.00,,,0.00,WeatherCatV1.21B27,2013-08-14 11:26:00,
2013-08-14 05:31:00,43.0,40.8,30.07,SW,218,1.0,2.0,92,0.00,,,0.00,WeatherCatV1.21B27,2013-08-14 11:31:00,
2013-08-14 05:36:00,43.2,40.5,30.07,SSW,203,0.0,0.0,90,0.00,,,0.00,WeatherCatV1.21B27,2013-08-14 11:36:00,
2013-08-14 05:41:00,43.3,40.8,30.07,SSW,204,0.0,0.0,91,0.00,,,0.00,WeatherCatV1.21B27,2013-08-14 11:41:00,
2013-08-14 05:46:00,43.0,40.6,30.07,SSW,205,0.0,0.0,91,0.00,,,0.00,WeatherCatV1.21B27,2013-08-14 11:46:00,
2013-08-14 05:51:00,42.9,40.7,30.07,ESE,107,1.0,1.0,92,0.00,,,0.00,WeatherCatV1.21B27,2013-08-14 11:51:00,
2013-08-14 05:56:00,42.9,40.5,30.07,ESE,106,0.0,0.0,91,0.00,,,0.00,WeatherCatV1.21B27,2013-08-14 11:56:00,
2013-08-14 06:01:00,42.7,40.3,30.08,ESE,105,0.0,0.0,91,0.00,,,0.00,WeatherCatV1.21B27,2013-08-14 12:01:00,
2013-08-14 06:06:00,42.4,40.2,30.08,SSW,194,0.0,1.0,92,0.00,,,0.00,WeatherCatV1.21B27,2013-08-14 12:06:00,
2013-08-14 06:11:00,42.3,40.1,30.08,South,171,0.0,0.0,92,0.00,,,0.00,WeatherCatV1.21B27,2013-08-14 12:11:00,
2013-08-14 06:16:00,42.1,40.2,30.08,South,170,0.0,0.0,93,0.00,,,0.00,WeatherCatV1.21B27,2013-08-14 12:16:00,
2013-08-14 06:21:00,42.0,40.1,30.08,South,172,0.0,1.0,93,0.00,,,0.00,WeatherCatV1.21B27,2013-08-14 12:21:00,
2013-08-14 06:26:00,41.9,40.0,30.08,South,172,0.0,0.0,93,0.00,,,0.00,WeatherCatV1.21B27,2013-08-14 12:26:00,
2013-08-14 06:31:00,41.9,40.0,30.08,South,172,0.0,0.0,93,0.00,,,0.00,WeatherCatV1.21B27,2013-08-14 12:31:00,
2013-08-14 06:36:00,41.9,40.0,30.08,South,172,0.0,0.0,93,0.00,,,0.00,WeatherCatV1.21B27,2013-08-14 12:36:00,
2013-08-14 06:41:00,41.8,39.9,30.09,South,172,0.0,0.0,93,0.00,,,0.00,WeatherCatV1.21B27,2013-08-14 12:41:00,
2013-08-14 06:46:00,41.9,40.0,30.09,South,172,0.0,0.0,93,0.00,,,0.00,WeatherCatV1.21B27,2013-08-14 12:46:00,
2013-08-14 06:51:00,42.0,40.1,30.09,South,172,0.0,0.0,93,0.00,,,0.00,WeatherCatV1.21B27,2013-08-14 12:51:00,
2013-08-14 06:56:00,42.1,40.2,30.09,SW,219,0.0,1.0,93,0.00,,,0.00,WeatherCatV1.21B27,2013-08-14 12:56:00,
2013-08-14 07:01:00,42.3,40.4,30.10,SW,219,0.0,0.0,93,0.00,,,0.00,WeatherCatV1.21B27,2013-08-14 13:01:00,
2013-08-14 07:06:00,42.4,40.5,30.10,SW,220,0.0,0.0,93,0.00,,,0.00,WeatherCatV1.21B27,2013-08-14 13:06:00,
2013-08-14 07:11:00,42.6,40.4,30.10,SW,219,0.0,0.0,92,0.00,,,0.00,WeatherCatV1.21B27,2013-08-14 13:11:00,
2013-08-14 07:16:00,42.8,40.6,30.10,SW,219,0.0,0.0,92,0.00,,,0.00,WeatherCatV1.21B27,2013-08-14 13:16:00,
2013-08-14 07:21:00,43.3,41.1,30.10,East,98,0.0,1.0,92,0.00,,,0.00,WeatherCatV1.21B27,2013-08-14 13:21:00,
2013-08-14 07:26:00,43.7,41.2,30.10,East,98,0.0,0.0,91,0.00,,,0.00,WeatherCatV1.21B27,2013-08-14 13:26:00,
2013-08-14 07:31:00,44.4,41.4,30.10,East,99,0.0,0.0,89,0.00,,,0.00,WeatherCatV1.21B27,2013-08-14 13:31:00,
2013-08-14 07:36:00,45.3,42.0,30.10,East,99,0.0,0.0,88,0.00,,,0.00,WeatherCatV1.21B27,2013-08-14 13:36:00,
2013-08-14 07:41:00,46.1,42.5,30.10,East,98,0.0,0.0,87,0.00,,,0.00,WeatherCatV1.21B27,2013-08-14 13:41:00,
2013-08-14 07:46:00,47.5,42.9,30.10,East,98,0.0,0.0,84,0.00,,,0.00,WeatherCatV1.21B27,2013-08-14 13:46:00,
2013-08-14 07:51:00,49.3,43.4,30.10,East,99,0.0,0.0,80,0.00,,,0.00,WeatherCatV1.21B27,2013-08-14 13:51:00,
2013-08-14 07:56:00,51.0,44.0,30.10,East,99,0.0,0.0,77,0.00,,,0.00,WeatherCatV1.21B27,2013-08-14 13:56:00,
2013-08-14 08:01:00,52.1,43.7,30.10,East,99,0.0,0.0,73,0.00,,,0.00,WeatherCatV1.21B27,2013-08-14 14:01:00,
2013-08-14 08:06:00,52.9,43.8,30.10,East,99,0.0,0.0,71,0.00,,,0.00,WeatherCatV1.21B27,2013-08-14 14:06:00,
2013-08-14 08:11:00,54.3,44.3,30.10,East,99,0.0,0.0,69,0.00,,,0.00,WeatherCatV1.21B27,2013-08-14 14:11:00,
2013-08-14 08:16:00,54.8,43.7,30.10,East,98,0.0,0.0,66,0.00,,,0.00,WeatherCatV1.21B27,2013-08-14 14:16:00,
2013-08-14 08:21:00,55.0,43.8,30.10,South,176,0.0,0.0,66,0.00,,,0.00,WeatherCatV1.21B27,2013-08-14 14:21:00,
2013-08-14 08:26:00,56.0,44.0,30.10,ENE,78,0.0,0.0,64,0.00,,,0.00,WeatherCatV1.21B27,2013-08-14 14:26:00,
2013-08-14 08:31:00,56.4,44.4,30.09,NNE,19,0.0,0.0,64,0.00,,,0.00,WeatherCatV1.21B27,2013-08-14 14:31:00,
2013-08-14 08:36:00,56.6,44.2,30.09,NNW,335,0.0,1.0,63,0.00,,,0.00,WeatherCatV1.21B27,2013-08-14 14:36:00,
2013-08-14 08:41:00,56.6,43.7,30.09,NNW,332,0.0,0.0,62,0.00,,,0.00,WeatherCatV1.21B27,2013-08-14 14:41:00,
2013-08-14 08:46:00,57.9,45.4,30.09,SE,127,0.0,0.0,63,0.00,,,0.00,WeatherCatV1.21B27,2013-08-14 14:46:00,
2013-08-14 08:51:00,58.5,45.1,30.09,ESE,108,0.0,0.0,61,0.00,,,0.00,WeatherCatV1.21B27,2013-08-14 14:51:00,
2013-08-14 08:56:00,59.5,45.2,30.09,East,85,0.0,0.0,59,0.00,,,0.00,WeatherCatV1.21B27,2013-08-14 14:56:00,
2013-08-14 09:01:00,60.4,45.1,30.08,WNW,283,0.0,1.0,57,0.00,,,0.00,WeatherCatV1.21B27,2013-08-14 15:01:00,
2013-08-14 09:06:00,60.5,45.2,30.08,NNE,13,1.0,3.0,57,0.00,,,0.00,WeatherCatV1.21B27,2013-08-14 15:06:00,
2013-08-14 09:11:00,59.3,43.6,30.08,NE,40,0.0,1.0,56,0.00,,,0.00,WeatherCatV1.21B27,2013-08-14 15:11:00,
2013-08-14 09:16:00,59.3,44.1,30.07,North,349,2.0,3.0,57,0.00,,,0.00,WeatherCatV1.21B27,2013-08-14 15:16:00,
2013-08-14 09:21:00,59.2,43.0,30.07,WNW,295,0.0,0.0,55,0.00,,,0.00,WeatherCatV1.21B27,2013-08-14 15:21:00,
2013-08-14 09:26:00,59.5,44.2,30.07,NNW,338,2.0,3.0,57,0.00,,,0.00,WeatherCatV1.21B27,2013-08-14 15:26:00,
2013-08-14 09:31:00,60.1,44.3,30.07,East,96,0.0,2.0,56,0.00,,,0.00,WeatherCatV1.21B27,2013-08-14 15:31:00,
2013-08-14 09:36:00,61.3,45.0,30.06,ENE,57,1.0,1.0,55,0.00,,,0.00,WeatherCatV1.21B27,2013-08-14 15:36:00,
2013-08-14 09:41:00,61.9,44.1,30.06,East,99,1.0,2.0,52,0.00,,,0.00,WeatherCatV1.21B27,2013-08-14 15:41:00,
2013-08-14 09:46:00,62.7,44.8,30.06,NE,44,0.0,1.0,52,0.00,,,0.00,WeatherCatV1.21B27,2013-08-14 15:46:00,
2013-08-14 09:51:00,63.9,44.4,30.06,West,277,0.0,1.0,49,0.00,,,0.00,WeatherCatV1.21B27,2013-08-14 15:51:00,
2013-08-14 09:54:00,64.6,44.5,30.06,NNW,333,0.0,0.0,48,0.00,,,0.00,WeatherCatV1.21B27,2013-08-14 15:54:00,
2013-08-14 09:59:00,64.6,44.5,30.05,East,86,0.0,1.0,48,0.00,,,0.00,WeatherCatV1.21B27,2013-08-14 15:59:00,
2013-08-14 10:04:00,65.0,44.3,30.05,NW,322,0.0,2.0,47,0.00,,,0.00,WeatherCatV1.21B27,2013-08-14 16:04:00,
2013-08-14 10:09:00,64.9,44.2,30.05,NW,309,0.0,2.0,47,0.00,,,0.00,WeatherCatV1.21B27,2013-08-14 16:09:00,
2013-08-14 10:14:00,65.1,44.4,30.05,NNW,328,0.0,2.0,47,0.00,,,0.00,WeatherCatV1.21B27,2013-08-14 16:14:00,
2013-08-14 10:19:00,66.1,43.5,30.05,NNE,21,0.0,1.0,44,0.00,,,0.00,WeatherCatV1.21B27,2013-08-14 16:19:00,
2013-08-14 10:20:00,66.1,44.1,30.04,East,81,1.0,2.0,45,0.00,,,0.00,WeatherCatV1.21B27,2013-08-14 16:20:00,
2013-08-14 10:21:00,66.1,43.5,30.04,East,88,0.0,2.0,44,0.00,,,0.00,WeatherCatV1.21B27,2013-08-14 16:21:00,
2013-08-14 10:26:00,66.8,44.2,30.04,ESE,102,2.0,2.0,44,0.00,,,0.00,WeatherCatV1.21B27,2013-08-14 16:26:00,
2013-08-14 10:31:00,66.7,43.5,30.04,ENE,65,0.0,3.0,43,0.00,,,0.00,WeatherCatV1.21B27,2013-08-14 16:31:00,
2013-08-14 10:36:00,67.3,45.2,30.04,NNW,338,0.0,1.0,45,0.00,,,0.00,WeatherCatV1.21B27,2013-08-14 16:36:00,
2013-08-14 10:41:00,68.2,43.6,30.03,East,83,1.0,4.0,41,0.00,,,0.00,WeatherCatV1.21B27,2013-08-14 16:41:00,
2013-08-14 10:46:00,68.0,42.8,30.03,East,90,3.0,3.0,40,0.00,,,0.00,WeatherCatV1.21B27,2013-08-14 16:46:00,
2013-08-14 10:51:00,68.5,43.9,30.03,ESE,117,0.0,1.0,41,0.00,,,0.00,WeatherCatV1.21B27,2013-08-14 16:51:00,
2013-08-14 10:56:00,69.5,44.8,30.03,North,351,2.0,2.0,41,0.00,,,0.00,WeatherCatV1.21B27,2013-08-14 16:56:00,
2013-08-14 11:01:00,69.9,43.1,30.02,NNE,13,0.0,1.0,38,0.00,,,0.00,WeatherCatV1.21B27,2013-08-14 17:01:00,
2013-08-14 11:06:00,70.7,44.5,30.02,ENE,74,2.0,3.0,39,0.00,,,0.00,WeatherCatV1.21B27,2013-08-14 17:06:00,
2013-08-14 11:11:00,70.7,44.5,30.02,WSW,250,0.0,1.0,39,0.00,,,0.00,WeatherCatV1.21B27,2013-08-14 17:11:00,
2013-08-14 11:16:00,71.3,43.0,30.01,NW,314,0.0,1.0,36,0.00,,,0.00,WeatherCatV1.21B27,2013-08-14 17:16:00,
2013-08-14 11:21:00,72.2,43.0,30.01,ENE,78,1.0,1.0,35,0.00,,,0.00,WeatherCatV1.21B27,2013-08-14 17:21:00,
2013-08-14 11:26:00,72.7,45.6,30.01,West,263,0.0,1.0,38,0.00,,,0.00,WeatherCatV1.21B27,2013-08-14 17:26:00,
2013-08-14 11:31:00,73.7,42.8,30.00,SE,136,0.0,0.0,33,0.00,,,0.00,WeatherCatV1.21B27,2013-08-14 17:31:00,
2013-08-14 11:36:00,75.0,44.7,30.00,NE,44,0.0,1.0,34,0.00,,,0.00,WeatherCatV1.21B27,2013-08-14 17:36:00,
2013-08-14 11:41:00,74.9,46.1,30.00,North,358,2.0,3.0,36,0.00,,,0.00,WeatherCatV1.21B27,2013-08-14 17:41:00,
2013-08-14 11:46:00,75.1,44.0,29.99,NNE,33,1.0,4.0,33,0.00,,,0.00,WeatherCatV1.21B27,2013-08-14 17:46:00,
2013-08-14 11:51:00,74.6,48.0,29.99,East,98,1.0,1.0,39,0.00,,,0.00,WeatherCatV1.21B27,2013-08-14 17:51:00,
2013-08-14 11:56:00,74.8,47.5,29.98,West,265,0.0,1.0,38,0.00,,,0.00,WeatherCatV1.21B27,2013-08-14 17:56:00,
2013-08-14 12:01:00,75.6,43.7,29.98,NNW,333,1.0,1.0,32,0.00,,,0.00,WeatherCatV1.21B27,2013-08-14 18:01:00,
2013-08-14 12:06:00,76.6,44.5,29.98,North,359,0.0,1.0,32,0.00,,,0.00,WeatherCatV1.21B27,2013-08-14 18:06:00,
2013-08-14 12:11:00,78.4,50.0,29.97,East,101,1.0,3.0,37,0.00,,,0.00,WeatherCatV1.21B27,2013-08-14 18:11:00,
2013-08-14 12:16:00,78.4,46.9,29.97,WSW,247,0.0,1.0,33,0.00,,,0.00,WeatherCatV1.21B27,2013-08-14 18:16:00,
2013-08-14 12:21:00,78.6,47.1,29.97,SW,233,2.0,3.0,33,0.00,,,0.00,WeatherCatV1.21B27,2013-08-14 18:21:00,
2013-08-14 12:26:00,78.4,46.9,29.96,SSW,201,0.0,1.0,33,0.00,,,0.00,WeatherCatV1.21B27,2013-08-14 18:26:00,
2013-08-14 12:31:00,78.2,47.5,29.96,SSE,160,1.0,2.0,34,0.00,,,0.00,WeatherCatV1.21B27,2013-08-14 18:31:00,
2013-08-14 12:36:00,78.8,46.4,29.95,SSE,155,2.0,2.0,32,0.00,,,0.00,WeatherCatV1.21B27,2013-08-14 18:36:00,
2013-08-14 12:41:00,79.4,48.6,29.95,WSW,245,0.0,4.0,34,0.00,,,0.00,WeatherCatV1.21B27,2013-08-14 18:41:00,
2013-08-14 12:46:00,79.9,44.8,29.95,SE,146,1.0,3.0,29,0.00,,,0.00,WeatherCatV1.21B27,2013-08-14 18:46:00,
2013-08-14 12:51:00,79.8,40.8,29.95,North,4,0.0,1.0,25,0.00,,,0.00,WeatherCatV1.21B27,2013-08-14 18:51:00,
2013-08-14 12:56:00,80.5,41.4,29.94,NNE,29,1.0,2.0,25,0.00,,,0.00,WeatherCatV1.21B27,2013-08-14 18:56:00,
2013-08-14 13:01:00,80.5,42.4,29.94,SSE,153,1.0,3.0,26,0.00,,,0.00,WeatherCatV1.21B27,2013-08-14 19:01:00,
2013-08-14 13:06:00,81.4,47.0,29.93,SSW,197,3.0,7.0,30,0.00,,,0.00,WeatherCatV1.21B27,2013-08-14 19:06:00,
2013-08-14 13:12:00,82.4,46.0,29.93,West,274,1.0,4.0,28,0.00,,,0.00,WeatherCatV1.21B27,2013-08-14 19:12:00,
2013-08-14 13:17:00,82.5,39.8,29.92,West,263,1.0,2.0,22,0.00,,,0.00,WeatherCatV1.21B27,2013-08-14 19:17:00,
2013-08-14 13:22:00,82.0,41.6,29.92,West,278,1.0,1.0,24,0.00,,,0.00,WeatherCatV1.21B27,2013-08-14 19:22:00,
2013-08-14 13:27:00,82.1,33.0,29.92,NNW,338,3.0,3.0,17,0.00,,,0.00,WeatherCatV1.21B27,2013-08-14 19:27:00,
2013-08-14 13:32:00,83.0,40.2,29.92,SE,131,0.0,0.0,22,0.00,,,0.00,WeatherCatV1.21B27,2013-08-14 19:32:00,
2013-08-14 13:37:00,84.4,34.8,29.92,NNW,343,2.0,2.0,17,0.00,,,0.00,WeatherCatV1.21B27,2013-08-14 19:37:00,
2013-08-14 13:42:00,84.3,33.2,29.91,North,6,6.0,8.0,16,0.00,,,0.00,WeatherCatV1.21B27,2013-08-14 19:42:00,
2013-08-14 13:47:00,84.2,33.1,29.91,NNE,25,4.0,5.0,16,0.00,,,0.00,WeatherCatV1.21B27,2013-08-14 19:47:00,
2013-08-14 13:52:00,84.3,29.9,29.91,NNW,335,0.0,5.0,14,0.00,,,0.00,WeatherCatV1.21B27,2013-08-14 19:52:00,
2013-08-14 13:57:00,84.4,34.8,29.91,NNW,335,7.0,11.0,17,0.00,,,0.00,WeatherCatV1.21B27,2013-08-14 19:57:00,
2013-08-14 14:02:00,84.0,33.0,29.91,NW,309,5.0,14.0,16,0.00,,,0.00,WeatherCatV1.21B27,2013-08-14 20:02:00,
2013-08-14 14:07:00,84.2,36.1,29.90,ENE,57,3.0,6.0,18,0.00,,,0.00,WeatherCatV1.21B27,2013-08-14 20:07:00,
2013-08-14 14:12:00,84.0,34.5,29.90,NNW,333,5.0,6.0,17,0.00,,,0.00,WeatherCatV1.21B27,2013-08-14 20:12:00,
2013-08-14 14:17:00,83.9,32.9,29.90,NNE,25,4.0,8.0,16,0.00,,,0.00,WeatherCatV1.21B27,2013-08-14 20:17:00,
2013-08-14 14:22:00,84.0,33.0,29.90,NW,304,17.0,17.0,16,0.00,,,0.00,WeatherCatV1.21B27,2013-08-14 20:22:00,
2013-08-14 14:27:00,84.7,35.0,29.90,NNE,13,11.0,12.0,17,0.00,,,0.00,WeatherCatV1.21B27,2013-08-14 20:27:00,
2013-08-14 14:32:00,83.8,32.8,29.90,NNW,332,8.0,17.0,16,0.00,,,0.00,WeatherCatV1.21B27,2013-08-14 20:32:00,
2013-08-14 14:37:00,82.8,34.9,29.91,NW,317,13.0,18.0,18,0.00,,,0.00,WeatherCatV1.21B27,2013-08-14 20:37:00,
2013-08-14 14:42:00,81.2,36.3,29.91,NW,315,4.0,16.0,20,0.00,,,0.00,WeatherCatV1.21B27,2013-08-14 20:42:00,
2013-08-14 14:47:00,80.2,36.7,29.91,North,0,11.0,15.0,21,0.00,,,0.00,WeatherCatV1.21B27,2013-08-14 20:47:00,
2013-08-14 14:52:00,80.1,36.6,29.91,NW,315,8.0,12.0,21,0.00,,,0.00,WeatherCatV1.21B27,2013-08-14 20:52:00,
2013-08-14 14:57:00,80.6,33.2,29.91,North,11,12.0,19.0,18,0.00,,,0.00,WeatherCatV1.21B27,2013-08-14 20:57:00,
2013-08-14 15:02:00,80.9,33.4,29.91,West,266,4.0,12.0,18,0.00,,,0.00,WeatherCatV1.21B27,2013-08-14 21:02:00,
2013-08-14 15:07:00,81.2,30.7,29.91,WNW,293,11.0,17.0,16,0.00,,,0.00,WeatherCatV1.21B27,2013-08-14 21:07:00,
2013-08-14 15:12:00,81.0,32.1,29.91,North,351,5.0,13.0,17,0.00,,,0.00,WeatherCatV1.21B27,2013-08-14 21:12:00,
2013-08-14 15:17:00,80.9,30.5,29.91,NW,307,5.0,8.0,16,0.00,,,0.00,WeatherCatV1.21B27,2013-08-14 21:17:00,
2013-08-14 15:22:00,80.9,33.4,29.91,NNE,20,5.0,5.0,18,0.00,,,0.00,WeatherCatV1.21B27,2013-08-14 21:22:00,
2013-08-14 15:27:00,80.9,32.0,29.90,NW,318,1.0,4.0,17,0.00,,,0.00,WeatherCatV1.21B27,2013-08-14 21:27:00,
2013-08-14 15:32:00,81.0,33.5,29.90,NNW,340,4.0,4.0,18,0.00,,,0.00,WeatherCatV1.21B27,2013-08-14 21:32:00,
2013-08-14 15:37:00,80.8,28.8,29.90,NW,326,4.0,5.0,15,0.00,,,0.00,WeatherCatV1.21B27,2013-08-14 21:37:00,
2013-08-14 15:42:00,80.8,33.3,29.90,North,355,1.0,1.0,18,0.00,,,0.00,WeatherCatV1.21B27,2013-08-14 21:42:00,
2013-08-14 15:47:00,80.8,36.0,29.91,WNW,300,0.0,4.0,20,0.00,,,0.00,WeatherCatV1.21B27,2013-08-14 21:47:00,
2013-08-14 15:52:00,80.3,35.5,29.91,WNW,301,1.0,2.0,20,0.00,,,0.00,WeatherCatV1.21B27,2013-08-14 21:52:00,
2013-08-14 15:57:00,80.2,35.5,29.91,West,263,1.0,4.0,20,0.00,,,0.00,WeatherCatV1.21B27,2013-08-14 21:57:00,
2013-08-14 16:02:00,79.5,33.6,29.91,West,281,2.0,4.0,19,0.00,,,0.00,WeatherCatV1.21B27,2013-08-14 22:02:00,
2013-08-14 16:07:00,79.6,33.7,29.91,West,273,2.0,5.0,19,0.00,,,0.00,WeatherCatV1.21B27,2013-08-14 22:07:00,
2013-08-14 16:12:00,79.2,34.7,29.92,NW,326,7.0,12.0,20,0.00,,,0.00,WeatherCatV1.21B27,2013-08-14 22:12:00,
2013-08-14 16:17:00,78.7,34.2,29.92,West,266,2.0,11.0,20,0.00,,,0.00,WeatherCatV1.21B27,2013-08-14 22:17:00,
2013-08-14 16:22:00,78.4,34.0,29.91,North,351,14.0,21.0,20,0.00,,,0.00,WeatherCatV1.21B27,2013-08-14 22:22:00,
2013-08-14 16:27:00,78.4,34.0,29.92,NW,317,5.0,17.0,20,0.00,,,0.00,WeatherCatV1.21B27,2013-08-14 22:27:00,
2013-08-14 16:32:00,78.1,36.1,29.91,South,183,4.0,7.0,22,0.00,,,0.00,WeatherCatV1.21B27,2013-08-14 22:32:00,
2013-08-14 16:37:00,78.1,35.0,29.91,SW,215,6.0,7.0,21,0.00,,,0.00,WeatherCatV1.21B27,2013-08-14 22:37:00,
2013-08-14 16:42:00,78.7,35.5,29.90,WSW,257,1.0,2.0,21,0.00,,,0.00,WeatherCatV1.21B27,2013-08-14 22:42:00,
2013-08-14 16:47:00,79.1,37.0,29.90,West,276,2.0,4.0,22,0.00,,,0.00,WeatherCatV1.21B27,2013-08-14 22:47:00,
2013-08-14 16:52:00,79.4,33.5,29.90,SW,233,3.0,3.0,19,0.00,,,0.00,WeatherCatV1.21B27,2013-08-14 22:52:00,
2013-08-14 16:57:00,79.4,32.2,29.90,NW,326,2.0,2.0,18,0.00,,,0.00,WeatherCatV1.21B27,2013-08-14 22:57:00,
2013-08-14 17:02:00,79.8,35.1,29.90,SSW,204,1.0,1.0,20,0.00,,,0.00,WeatherCatV1.21B27,2013-08-14 23:02:00,
2013-08-14 17:07:00,80.2,32.8,29.90,SW,217,3.0,3.0,18,0.00,,,0.00,WeatherCatV1.21B27,2013-08-14 23:07:00,
2013-08-14 17:12:00,80.3,34.3,29.90,SSW,201,0.0,3.0,19,0.00,,,0.00,WeatherCatV1.21B27,2013-08-14 23:12:00,
2013-08-14 17:17:00,80.6,34.5,29.89,SSE,157,0.0,5.0,19,0.00,,,0.00,WeatherCatV1.21B27,2013-08-14 23:17:00,
2013-08-14 17:22:00,80.5,35.7,29.90,ENE,63,1.0,4.0,20,0.00,,,0.00,WeatherCatV1.21B27,2013-08-14 23:22:00,
2013-08-14 17:27:00,80.2,36.7,29.89,ESE,107,2.0,7.0,21,0.00,,,0.00,WeatherCatV1.21B27,2013-08-14 23:27:00,
2013-08-14 17:32:00,80.1,36.6,29.89,SE,128,2.0,4.0,21,0.00,,,0.00,WeatherCatV1.21B27,2013-08-14 23:32:00,
2013-08-14 17:37:00,80.2,40.1,29.89,South,170,3.0,4.0,24,0.00,,,0.00,WeatherCatV1.21B27,2013-08-14 23:37:00,
2013-08-14 17:42:00,80.2,35.5,29.89,South,182,4.0,5.0,20,0.00,,,0.00,WeatherCatV1.21B27,2013-08-14 23:42:00,
2013-08-14 17:47:00,79.7,36.3,29.89,ESE,108,1.0,4.0,21,0.00,,,0.00,WeatherCatV1.21B27,2013-08-14 23:47:00,
2013-08-14 17:52:00,78.9,36.8,29.89,SW,218,2.0,4.0,22,0.00,,,0.00,WeatherCatV1.21B27,2013-08-14 23:52:00,
2013-08-14 17:57:00,78.1,37.3,29.89,SSE,167,2.0,6.0,23,0.00,,,0.00,WeatherCatV1.21B27,2013-08-14 23:57:00,
2013-08-14 18:02:00,77.5,35.6,29.88,WSW,257,2.0,6.0,22,0.00,,,0.00,WeatherCatV1.21B27,2013-08-15 00:02:00,
2013-08-14 18:07:00,77.4,34.4,29.88,SSW,200,5.0,8.0,21,0.00,,,0.00,WeatherCatV1.21B27,2013-08-15 00:07:00,
2013-08-14 18:12:00,77.4,35.6,29.88,SSW,200,4.0,8.0,22,0.00,,,0.00,WeatherCatV1.21B27,2013-08-15 00:12:00,
2013-08-14 18:17:00,77.4,34.4,29.88,South,182,2.0,6.0,21,0.00,,,0.00,WeatherCatV1.21B27,2013-08-15 00:17:00,
2013-08-14 18:22:00,77.3,35.5,29.88,SSW,194,1.0,4.0,22,0.00,,,0.00,WeatherCatV1.21B27,2013-08-15 00:22:00,
2013-08-14 18:27:00,77.0,38.5,29.88,SSW,197,1.0,1.0,25,0.00,,,0.00,WeatherCatV1.21B27,2013-08-15 00:27:00,
2013-08-14 18:32:00,76.5,39.0,29.88,South,175,2.0,3.0,26,0.00,,,0.00,WeatherCatV1.21B27,2013-08-15 00:32:00,
2013-08-14 18:37:00,76.0,38.6,29.88,SSE,166,4.0,4.0,26,0.00,,,0.00,WeatherCatV1.21B27,2013-08-15 00:37:00,
2013-08-14 18:42:00,75.7,42.0,29.88,WSW,257,0.0,0.0,30,0.00,,,0.00,WeatherCatV1.21B27,2013-08-15 00:42:00,
2013-08-14 18:47:00,75.5,40.1,29.88,SW,224,0.0,1.0,28,0.00,,,0.00,WeatherCatV1.21B27,2013-08-15 00:47:00,
2013-08-14 18:52:00,75.6,40.2,29.88,SW,226,0.0,3.0,28,0.00,,,0.00,WeatherCatV1.21B27,2013-08-15 00:52:00,
2013-08-14 18:57:00,75.7,42.0,29.88,North,358,3.0,3.0,30,0.00,,,0.00,WeatherCatV1.21B27,2013-08-15 00:57:00,
2013-08-14 19:02:00,76.4,33.6,29.88,SE,138,2.0,3.0,21,0.00,,,0.00,WeatherCatV1.21B27,2013-08-15 01:02:00,
2013-08-14 19:07:00,76.2,41.6,29.88,WNW,290,0.0,1.0,29,0.00,,,0.00,WeatherCatV1.21B27,2013-08-15 01:07:00,
2013-08-14 19:12:00,75.4,44.3,29.88,NW,309,0.0,0.0,33,0.00,,,0.00,WeatherCatV1.21B27,2013-08-15 01:12:00,
2013-08-14 19:17:00,74.6,43.6,29.88,West,280,0.0,0.0,33,0.00,,,0.00,WeatherCatV1.21B27,2013-08-15 01:17:00,
2013-08-14 19:22:00,73.8,46.6,29.88,NW,323,0.0,1.0,38,0.00,,,0.00,WeatherCatV1.21B27,2013-08-15 01:22:00,
2013-08-14 19:27:00,72.9,39.6,29.88,WNW,297,1.0,1.0,30,0.00,,,0.00,WeatherCatV1.21B27,2013-08-15 01:27:00,
2013-08-14 19:32:00,72.5,41.0,29.88,WNW,297,0.0,0.0,32,0.00,,,0.00,WeatherCatV1.21B27,2013-08-15 01:32:00,
2013-08-14 19:37:00,71.8,43.4,29.89,WNW,299,0.0,0.0,36,0.00,,,0.00,WeatherCatV1.21B27,2013-08-15 01:37:00,
2013-08-14 19:42:00,71.0,42.0,29.89,North,352,0.0,2.0,35,0.00,,,0.00,WeatherCatV1.21B27,2013-08-15 01:42:00,
2013-08-14 19:47:00,70.9,42.6,29.89,WNW,283,0.0,1.0,36,0.00,,,0.00,WeatherCatV1.21B27,2013-08-15 01:47:00,
2013-08-14 19:52:00,70.6,39.3,29.90,WNW,290,1.0,2.0,32,0.00,,,0.00,WeatherCatV1.21B27,2013-08-15 01:52:00,
2013-08-14 19:57:00,70.5,40.0,29.90,SW,224,1.0,1.0,33,0.00,,,0.00,WeatherCatV1.21B27,2013-08-15 01:57:00,
2013-08-14 20:02:00,70.3,39.8,29.90,SW,233,1.0,1.0,33,0.00,,,0.00,WeatherCatV1.21B27,2013-08-15 02:02:00,
2013-08-14 20:07:00,70.4,38.3,29.90,WSW,242,1.0,2.0,31,0.00,,,0.00,WeatherCatV1.21B27,2013-08-15 02:07:00,
2013-08-14 20:12:00,70.3,39.0,29.90,NW,323,0.0,0.0,32,0.00,,,0.00,WeatherCatV1.21B27,2013-08-15 02:12:00,
2013-08-14 20:17:00,70.2,38.1,29.90,WNW,290,0.0,0.0,31,0.00,,,0.00,WeatherCatV1.21B27,2013-08-15 02:17:00,
2013-08-14 20:22:00,69.9,37.9,29.91,West,277,0.0,0.0,31,0.00,,,0.00,WeatherCatV1.21B27,2013-08-15 02:22:00,
2013-08-14 20:27:00,69.4,39.0,29.91,South,169,1.0,2.0,33,0.00,,,0.00,WeatherCatV1.21B27,2013-08-15 02:27:00,
2013-08-14 20:32:00,68.9,39.4,29.91,ENE,63,1.0,1.0,34,0.00,,,0.00,WeatherCatV1.21B27,2013-08-15 02:32:00,
2013-08-14 20:37:00,68.6,39.8,29.91,North,356,0.0,0.0,35,0.00,,,0.00,WeatherCatV1.21B27,2013-08-15 02:37:00,
2013-08-14 20:42:00,68.3,38.8,29.91,WNW,293,0.0,1.0,34,0.00,,,0.00,WeatherCatV1.21B27,2013-08-15 02:42:00,
2013-08-14 20:47:00,67.5,41.0,29.91,WNW,293,0.0,0.0,38,0.00,,,0.00,WeatherCatV1.21B27,2013-08-15 02:47:00,
2013-08-14 20:52:00,66.6,42.2,29.92,WNW,294,0.0,0.0,41,0.00,,,0.00,WeatherCatV1.21B27,2013-08-15 02:52:00,
2013-08-14 20:57:00,65.8,42.7,29.92,ENE,71,0.0,0.0,43,0.00,,,0.00,WeatherCatV1.21B27,2013-08-15 02:57:00,
2013-08-14 21:02:00,65.1,43.2,29.92,SSE,163,0.0,0.0,45,0.00,,,0.00,WeatherCatV1.21B27,2013-08-15 03:02:00,
2013-08-14 21:07:00,64.2,42.4,29.92,SSE,159,0.0,1.0,45,0.00,,,0.00,WeatherCatV1.21B27,2013-08-15 03:07:00,
2013-08-14 21:12:00,63.5,41.2,29.92,South,170,0.0,0.0,44,0.00,,,0.00,WeatherCatV1.21B27,2013-08-15 03:12:00,
2013-08-14 21:17:00,63.0,41.3,29.93,South,170,0.0,0.0,45,0.00,,,0.00,WeatherCatV1.21B27,2013-08-15 03:17:00,
2013-08-14 21:22:00,62.6,42.6,29.93,South,169,2.0,2.0,48,0.00,,,0.00,WeatherCatV1.21B27,2013-08-15 03:22:00,
2013-08-14 21:27:00,62.0,42.6,29.93,South,176,2.0,2.0,49,0.00,,,0.00,WeatherCatV1.21B27,2013-08-15 03:27:00,
2013-08-14 21:32:00,61.3,42.5,29.94,SSE,156,1.0,1.0,50,0.00,,,0.00,WeatherCatV1.21B27,2013-08-15 03:32:00,
2013-08-14 21:37:00,61.0,42.2,29.94,ESE,105,1.0,1.0,50,0.00,,,0.00,WeatherCatV1.21B27,2013-08-15 03:37:00,
2013-08-14 21:42:00,60.7,44.0,29.94,West,280,0.0,1.0,54,0.00,,,0.00,WeatherCatV1.21B27,2013-08-15 03:42:00,
2013-08-14 21:47:00,60.0,42.8,29.94,West,280,0.0,0.0,53,0.00,,,0.00,WeatherCatV1.21B27,2013-08-15 03:47:00,
2013-08-14 21:52:00,59.6,42.5,29.95,SW,227,0.0,1.0,53,0.00,,,0.00,WeatherCatV1.21B27,2013-08-15 03:52:00,
2013-08-14 21:57:00,59.2,44.0,29.95,West,259,0.0,0.0,57,0.00,,,0.00,WeatherCatV1.21B27,2013-08-15 03:57:00,
2013-08-14 22:01:00,58.8,42.7,29.95,West,259,0.0,0.0,55,0.00,,,0.00,WeatherCatV1.21B27,2013-08-15 04:01:00,
2013-08-14 22:06:00,58.4,42.3,29.95,West,259,0.0,0.0,55,0.00,,,0.00,WeatherCatV1.21B27,2013-08-15 04:06:00,
2013-08-14 22:11:00,58.2,42.1,29.95,WSW,257,0.0,0.0,55,0.00,,,0.00,WeatherCatV1.21B27,2013-08-15 04:11:00,
2013-08-14 22:16:00,57.8,43.1,29.95,SW,231,0.0,1.0,58,0.00,,,0.00,WeatherCatV1.21B27,2013-08-15 04:16:00,
2013-08-14 22:21:00,57.8,40.8,29.95,SW,219,1.0,1.0,53,0.00,,,0.00,WeatherCatV1.21B27,2013-08-15 04:21:00,
2013-08-14 22:26:00,58.2,40.7,29.95,SSE,147,0.0,2.0,52,0.00,,,0.00,WeatherCatV1.21B27,2013-08-15 04:26:00,
2013-08-14 22:31:00,58.1,41.1,29.95,SSE,163,1.0,1.0,53,0.00,,,0.00,WeatherCatV1.21B27,2013-08-15 04:31:00,
2013-08-14 22:36:00,57.5,40.5,29.95,SW,214,2.0,3.0,53,0.00,,,0.00,WeatherCatV1.21B27,2013-08-15 04:36:00,
2013-08-14 22:41:00,57.2,40.2,29.95,SW,218,0.0,0.0,53,0.00,,,0.00,WeatherCatV1.21B27,2013-08-15 04:41:00,
2013-08-14 22:46:00,56.7,41.2,29.95,West,261,0.0,1.0,56,0.00,,,0.00,WeatherCatV1.21B27,2013-08-15 04:46:00,
2013-08-14 22:51:00,56.4,40.4,29.95,NNW,334,0.0,0.0,55,0.00,,,0.00,WeatherCatV1.21B27,2013-08-15 04:51:00,
2013-08-14 22:56:00,56.1,40.6,29.95,NW,305,0.0,0.0,56,0.00,,,0.00,WeatherCatV1.21B27,2013-08-15 04:56:00,
2013-08-14 23:01:00,55.5,40.1,29.96,NW,305,0.0,0.0,56,0.00,,,0.00,WeatherCatV1.21B27,2013-08-15 05:01:00,
2013-08-14 23:06:00,55.1,39.7,29.96,NW,305,0.0,0.0,56,0.00,,,0.00,WeatherCatV1.21B27,2013-08-15 05:06:00,
2013-08-14 23:11:00,54.9,42.1,29.96,NW,304,0.0,0.0,62,0.00,,,0.00,WeatherCatV1.21B27,2013-08-15 05:11:00,
2013-08-14 23:16:00,54.3,41.6,29.96,NW,305,0.0,0.0,62,0.00,,,0.00,WeatherCatV1.21B27,2013-08-15 05:16:00,
2013-08-14 23:21:00,53.8,42.3,29.97,SW,228,0.0,0.0,65,0.00,,,0.00,WeatherCatV1.21B27,2013-08-15 05:21:00,
2013-08-14 23:26:00,53.2,42.1,29.97,SW,228,0.0,0.0,66,0.00,,,0.00,WeatherCatV1.21B27,2013-08-15 05:26:00,
2013-08-14 23:31:00,52.5,42.6,29.98,SW,228,0.0,0.0,69,0.00,,,0.00,WeatherCatV1.21B27,2013-08-15 05:31:00,
2013-08-14 23:36:00,52.0,41.4,29.97,SW,228,0.0,0.0,67,0.00,,,0.00,WeatherCatV1.21B27,2013-08-15 05:36:00,
2013-08-14 23:41:00,51.6,42.5,29.97,SW,228,0.0,0.0,71,0.00,,,0.00,WeatherCatV1.21B27,2013-08-15 05:41:00,
2013-08-14 23:46:00,51.4,41.2,29.97,SW,228,0.0,1.0,68,0.00,,,0.00,WeatherCatV1.21B27,2013-08-15 05:46:00,
2013-08-14 23:51:00,51.2,41.4,29.98,SW,228,0.0,0.0,69,0.00,,,0.00,WeatherCatV1.21B27,2013-08-15 05:51:00,
2013-08-14 23:56:00,51.0,41.2,29.98,SW,226,0.0,1.0,69,0.00,,,0.00,WeatherCatV1.21B27,2013-08-15 05:56:00,